Location: Carnières
(50.1682°N, 3.3474°E)
Time: 20:26:38
(UTC+00:00)

SL-16 R/B - Pass Details

Date: 07 August 2024
Orbit: 842 x 845 km, 71.0° (Epoch: 10 September)

Event Time Altitude Azimuth Distance (km) Brightness Sun altitude
Exits shadow 23:43:36 31° 114° (ESE) 1,441 3.1 -23.7°
Maximum altitude 23:44:01 31° 105° (ESE) 1,431 3.2 -23.8°
Drops below altitude 10° 23:48:57 10° 45° (NE) 2,474 5.2 -23.8°
Sets 23:51:38 0° 36° (NE) 3,414 6.2 -23.8°
